Regional Weather Roundup
Issued by NWS Sioux Falls, SD

Home | Current Version | Previous Version | Graphics & Text | Print | Product List | Glossary On
Versions: 1 2 3 4 5 6 7 8 9 10 11 12 13 14 15 16 17 18 19 20 21 22 23 24 25 26 27 28 29 30 31 32 33 34 35 36 37 38 39 40 41 42 43 44 45 46 47 48 49 50
000
ASUS43 KFSD 261702
RWRFSD

WEATHER ROUNDUP FOR SE SOUTH DAKOTA/SW MINNESOTA/NW IOWA
NATIONAL WEATHER SERVICE SIOUX FALLS SD
1100 AM CST FRI DEC 26 2014

NOTE: "FAIR" INDICATES FEW OR NO CLOUDS BELOW 12,000 FEET WITH NO
SIGNIFICANT WEATHER AND OR OBSTRUCTIONS TO VISIBILITY.


SDZ038>040-050-052>070-261800-
SOUTHEAST SOUTH DAKOTA

CITY           SKY/WX    TMP DP  RH WIND       PRES   REMARKS
CHAMBERLAIN    NOT AVBL
HURON          PTSUNNY   23  17  78 N16       30.14R WCI  10
MADISON        CLOUDY    23  23 100 N16       30.08R WCI  10
MITCHELL       CLOUDY    26  22  84 N16       30.14R WCI  14
SIOUX FALLS    CLOUDY    28  23  81 N15       30.06F WCI  16
WINNER         CLOUDY    24  19  81 N17       30.13R WCI  11
YANKTON        CLOUDY    28  23  80 N15       30.09S WCI  17
$$

MNZ071-072-080-081-089-090-097-098-261800-
SOUTHWEST MINNESOTA

CITY           SKY/WX    TMP DP  RH WIND       PRES   REMARKS
FAIRMONT       CLOUDY    30  27  86 N16       30.01S WCI  19
JACKSON        CLOUDY    30  28  93 N10G20    30.03R WCI  21
LUVERNE        CLOUDY    30  27  86 N10G18    30.05F WCI  21
MARSHALL       CLOUDY    27  21  80 N16       30.09R WCI  14
MONTEVIDEO     CLOUDY    27  27 100 N12       30.10R WCI  16
PIPESTONE      CLOUDY    25  23  93 NE13      30.06R WCI  13
REDWOOD FALLS  CLOUDY    30  25  81 N9        30.06R WCI  22
TRACY          CLOUDY    28  27  94 N13       30.07R WCI  17
WINDOM         CLOUDY    28  27  93 N12       30.04R WCI  18
WORTHINGTON    CLOUDY    27 -20  12 N17       30.04R WCI  14
$$

IAZ001>003-012>014-020>022-031-032-NEZ013-014-SDZ071-261800-
NORTHWEST IOWA

CITY           SKY/WX    TMP DP  RH WIND       PRES   REMARKS
CHEROKEE       CLOUDY    31  29  96 N12       30.01R WCI  21
DENISON        CLOUDY    32  32 100 N12G18    29.99R FOG     WCI  23
ESTHERVILLE    CLOUDY    30  28  92 N15       30.00S WCI  19
LE MARS        CLOUDY    30  28  93 N12G18    30.05R WCI  21
ORANGE CITY    CLOUDY    30  27  86 N13G18    30.04R WCI  20
SIOUX CITY     CLOUDY    32  27  81 N17       30.04R WCI  21
SPENCER        CLOUDY    31  27  85 N18       29.99F WCI  19
$$

ABBREVIATIONS USED IN REMARKS
   TC - TEMPERATURE IN CELSIUS
  WCI - WIND CHILL INDEX
   HX - HEAT INDEX
  VSB - VISIBILITY



USA.gov is the U.S. government's official web portal to all federal, state and local government web resources and services.